DELTA 1 DEB, 14904

Orbit data source: Space-Track

DELTA 1 DEB, 14904 is space debris in SSO originally from a launch on Thu, 29 Jul 1976 UTC launched from the Air Force Western Test Range (AFWTR). Debris objects in space refer to the collection of defunct objects orbiting the Earth. Examples of debris include non-operational satellites, rocket bodies, and fragments generated from explosions, collisions, or faulty payload assembly.

Loading next visibility...
Identifier
14904, 1976-077ES
Orbit
SSO
Country
Flag of USUS
Related business
Manufacturer
Unknown
Mission
Spacecraft
Bus & Motor
Unknown
Mass
Unknown
Launch date (UTC)
1976-07-29 (49 years ago)
Launch vehicle
Unknown
Launch site
Air Force Western Test Range (AFWTR)
Object type
Payload
Rocket body
Debris
Shape & HBR
Unknown shape, 0.1 m
Radar Cross Section
Small (<0.1 m²)

Expand to show TLE details & history
Last TLE update: 19 hours ago

TLE from 19 hours ago
0 DELTA 1 DEB
1 14904U 76077ES  25291.98252355  .00000094  00000-0  71630-3 0  9996
2 14904 102.7229 181.5707 0005256  31.9321 345.6361 12.72952015562598
Epoch: 2025-10-18T23:34Z
TLE epoch observation values (Epoch: 2025-10-18T23:34:50.034Z)
Latitude
17.09968°
Longitude
156.19347°
Altitude
1,367.962 km
Speed
7.178 km/s
True Right ascension
11h 50m 25s
True Declination
17° 00' 39"
Sunlit
Object was in daylight at epoch
Visualization orbit readout
Latitude
Unknown
Longitude
Unknown
Altitude
Unknown
Speed
Unknown
Apparent Right ascension
Unknown
Apparent Declination
Unknown
Sunlit
N/A
Visualization observer readout
Local Sidereal Time
12:59:06
Azimuth
Unknown
Elevation
Unknown
Doppler factor
Unknown
Orbital elements
Apogee altitude
1,371.586 km
Perigee altitude
1,363.444 km
Semi-major axis
7,745.652 km
Eccentricity
0.00053
Inclination
102.7229°
RAAN
181.5707°
Arg. of periapsis
31.9321°
True anomaly
345.62115°
Mean anomaly
345.6361°
Eccentric anomaly
345.62863°
Mean motion
3.18388 °/min
Orbital period
113.07 mins
BSTAR
0.0007163
Loading maneuver chart data...
Computing Atmospheric mass density...
Loading historical data...
Loading historical data...
Loading historical data...
Loading historical data...
Loading historical data...
Loading historical data...
Loading historical data...

Documentation

Showing up to 5 results
|